This demonstration page uses our WeatherBlox Daily Observations layout. Learn more.

Left ArrowRight Arrow

44.8408, -93.29828

Hourly Observations for February 3, 2019

Temp ( °F °C ) Dew Point ( °F °C ) Humidity (%) Winds ( mph kmh ) Pressure ( in mb ) Visibility ( mi km ) Precip ( " mm )
12:53 am 00:53 Cloudy with Mist and Fog 39 3.9 39 3.9 100 100 S 6 9 29.63 1004 4 6 0.00 0.00
1:53 am 01:53 Cloudy with Mist and Fog 39 3.9 39 3.9 100 100 S 6 9 29.63 1003 4 6 0.00 0.00
2:53 am 02:53 Cloudy with Mist and Fog 38 3.3 38 3.3 100 100 SSW 6 9 29.62 1003 5 8 0.00 0.00
3:21 am 03:21 Cloudy with Mist and Fog 38 3.3 38 3.3 100 100 SSW 6 9 29.63 1003 4 6 0.00 0.00
3:53 am 03:53 Cloudy with Mist and Fog 38 3.3 38 3.3 100 100 SW 7 11 29.62 1003 4 6 0.00 0.00
4:53 am 04:53 Cloudy with Mist and Fog 36 2.2 36 2.2 100 100 WSW 6 9 29.65 1004 3 4 0.00 0.00
5:17 am 05:17 Cloudy with Mist and Fog 36 2.2 36 2.2 100 100 WSW 6 9 29.66 1004 2 2 0.00 0.00
5:22 am 05:22 Cloudy with Mist and Fog 36 2.2 36 2.2 100 100 WSW 5 7 29.66 1004 1 2 0.00 0.00
5:53 am 05:53 Cloudy with Fog 35 1.7 35 1.7 100 100 WSW 5 7 29.66 1004 0 0 0.00 0.00
6:53 am 06:53 Mostly Cloudy with Fog 35 1.7 35 1.7 100 100 SW 3 6 29.66 1005 0 0 0.00 0.00
7:11 am 07:11 Mostly Cloudy with Fog 35 1.7 35 1.7 100 100 Calm 29.67 1005 0 0 0.00 0.00
7:32 am 07:32 Mostly Cloudy with Fog 35 1.7 35 1.7 100 100 SW 5 7 29.68 1005 0 0 0.00 0.00
7:53 am 07:53 Mostly Cloudy with Fog 34 1.1 34 1.1 100 100 VRB 3 6 29.67 1005 0 0 0.00 0.00
8:53 am 08:53 Mostly Cloudy with Fog 34 1.1 34 1.1 100 100 WSW 5 7 29.69 1005 0 0 0.00 0.00
9:25 am 09:25 Mostly Cloudy with Fog 34 1.1 34 1.1 100 100 SW 3 6 29.70 1006 1 1 0.00 0.00
9:38 am 09:38 Mostly Cloudy with Fog 35 1.7 35 1.7 100 100 Calm 29.71 1006 0 0 0.00 0.00
9:53 am 09:53 Mostly Cloudy with Fog 35 1.7 35 1.7 100 100 Calm 29.70 1006 0 0 0.00 0.00
10:53 am 10:53 Cloudy with Mist and Fog 35 1.7 35 1.7 100 100 W 3 6 29.72 1006 0 0 0.00 0.00
11:53 am 11:53 Cloudy with Mist and Fog 36 2.2 36 2.2 100 100 Calm 29.71 1006 0 0 0.00 0.00
12:08 pm 12:08 Cloudy with Mist and Fog 36 2.2 36 2.2 100 100 Calm 29.72 1006 1 1 0.00 0.00
12:53 pm 12:53 Cloudy with Mist and Fog 36 2.2 36 2.2 100 100 Calm 29.69 1005 1 1 0.00 0.00
1:53 pm 13:53 Cloudy with Mist and Fog 36 2.2 36 2.2 100 100 Calm 29.68 1005 1 1 0.00 0.00
2:53 pm 14:53 Cloudy with Mist and Fog 36 2.2 36 2.2 100 100 Calm 29.68 1005 1 1 0.00 0.00
3:53 pm 15:53 Cloudy with Mist and Fog 35 1.7 35 1.7 100 100 NNE 7 11 29.68 1005 1 1 0.00 0.00
4:53 pm 16:53 Cloudy with Mist and Fog 33 0.6 33 0.6 100 100 NNE 5 7 29.69 1005 1 1 0.00 0.00
5:53 pm 17:53 Cloudy with Drizzle 33 0.6 33 0.6 100 100 NE 6 9 29.69 1005 1 1 0.00 0.03
6:22 pm 18:22 Cloudy with Drizzle 33 0.6 33 0.6 100 100 NE 8 13 29.71 1006 2 3 0.00 0.03
6:26 pm 18:26 Cloudy with Drizzle 33 0.6 33 0.6 100 100 NE 8 13 29.71 1006 2 3 0.00 0.03
6:53 pm 18:53 Cloudy with Drizzle 33 0.6 33 0.6 100 100 NE 6 9 29.70 1006 2 3 0.00 0.03
6:59 pm 18:59 Cloudy with Drizzle 33 0.6 33 0.6 100 100 NE 8 13 29.71 1006 2 3 0.00 0.03
7:27 pm 19:27 Cloudy with Drizzle 33 0.6 33 0.6 100 100 NNW 3 6 29.73 1007 2 3 0.00 0.03
7:53 pm 19:53 Cloudy with Drizzle 33 0.6 33 0.6 100 100 N 6 9 29.71 1006 2 3 0.00 0.03
8:00 pm 20:00 Cloudy with Drizzle 33 0.6 33 0.6 100 100 NNE 7 11 29.72 1007 2 3 0.00 0.03
8:27 pm 20:27 Cloudy with Mist and Fog 33 0.6 33 0.6 100 100 NE 7 11 29.70 1006 2 3 0.00 0.03
8:53 pm 20:53 Cloudy with Mist and Fog 32 0 32 0 100 100 N 6 9 29.70 1006 2 3 0.00 0.03
9:12 pm 21:12 Cloudy with Mist and Fog 32 0 32 0 100 100 NNE 7 11 29.72 1006 2 3 0.00 0.00
9:36 pm 21:36 Cloudy with Light Freezing Drizzle 32 0 32 0 100 100 NE 8 13 29.71 1006 2 3 0.00 0.03
9:53 pm 21:53 Cloudy with Light Freezing Drizzle 32 0 32 0 100 100 NNE 8 13 29.68 1005 2 3 0.00 0.03
10:10 pm 22:10 Cloudy with Light Freezing Drizzle 32 0 32 0 100 100 NNE 8 13 29.69 1006 2 3 0.00 0.03
10:53 pm 22:53 Cloudy with Light Freezing Drizzle 33 0.6 33 0.6 100 100 NE 8 13 29.67 1005 3 5 0.01 0.25
11:20 pm 23:20 Cloudy with Light Freezing Drizzle 33 0.6 33 0.6 100 100 NNE 8 13 29.67 1005 3 4 0.00 0.03
11:30 pm 23:30 Cloudy with Light Freezing Drizzle 33 0.6 33 0.6 100 100 NNE 8 13 29.67 1005 3 5 0.00 0.03
11:53 pm 23:53 Cloudy with Light Freezing Drizzle 33 0.6 33 0.6 100 100 NNE 8 13 29.64 1004 4 6 0.00 0.03

Powered by AerisWeather